Temperature
25 24 23 24 25 25 25 24 24 24 25 24 24 23 24 23 23 23 22 22 21 20 20 19 19 18 18 18 17 17 17 17 16 16 16 16 16 16 16 16 15 15 15 15
24 24 25 25 25 25 25 24 24 24 25 25 24 24 24 24 23 23 23 22 22 21 20 19 19 18 18 18 17 17 17 17 16 16 16 16 16 16 16 15 15 15 15 15
24 25 25 25 25 24 25 24 24 24 24 25 24 23 24 24 24 23 23 22 22 21 20 19 19 18 18 17 17 17 17 17 16 16 16 16 16 16 16 15 15 15 15 15
25 25 25 25 25 25 24 25 24 24 23 23 24 22 23 24 23 23 23 23 22 21 21 20 19 18 18 18 17 17 17 17 16 16 16 16 16 16 16 15 15 15 15 15
24 25 25 24 25 25 24 25 24 24 24 23 24 23 23 24 23 23 23 23 22 21 21 20 19 19 18 18 17 17 17 17 16 16 16 16 16 16 15 15 15 15 15 15
25 26 25 25 25 25 25 24 24 24 24 23 24 24 23 24 24 24 23 23 22 22 21 20 19 19 18 18 17 17 17 17 16 16 16 16 16 16 16 15 15 15 15 15
24 25 25 25 24 25 25 23 22 22 22 23 25 25 24 25 25 25 24 23 23 22 21 20 19 19 18 18 17 17 17 17 16 16 16 16 16 16 16 16 15 15 15 15
23 23 25 25 24 24 24 24 22 22 23 24 25 24 25 26 25 25 24 24 23 22 21 20 20 19 18 18 17 17 17 16 16 16 16 16 16 16 16 16 16 15 15 15
24 24 25 25 25 25 24 24 25 24 24 24 25 25 25 25 25 25 24 24 23 22 21 21 20 19 18 18 17 17 17 17 16 16 16 16 16 16 16 16 16 15 15 15
25 24 25 25 25 25 25 25 24 23 23 23 24 24 23 24 24 24 24 23 23 22 21 20 20 19 18 18 17 17 17 17 17 16 16 16 16 16 16 16 16 16 15 15
25 24 24 24 24 24 24 24 24 24 24 23 22 23 25 24 24 24 24 23 23 22 21 20 20 19 18 18 18 17 17 17 17 16 16 16 16 16 16 16 16 16 15 15
25 24 23 24 25 25 24 24 24 23 23 24 23 23 25 25 25 24 24 23 22 22 21 20 20 19 18 18 18 18 17 17 17 16 16 16 16 16 16 16 16 15 15 15
24 23 22 23 23 24 24 24 24 24 23 23 22 23 25 24 24 24 23 23 22 21 21 20 19 19 19 18 18 18 17 17 17 17 16 16 16 16 16 16 16 16 15 15
23 23 22 22 23 23 23 23 24 23 22 22 23 23 23 23 23 23 23 22 21 21 20 20 19 19 18 18 18 18 18 17 17 17 16 16 16 16 16 16 16 15 15 15
23 22 23 24 24 24 23 23 23 23 23 22 23 23 23 23 23 23 22 22 21 20 20 19 19 18 18 18 18 18 18 17 17 17 16 16 16 16 16 16 15 15 15 15
23 22 23 23 24 24 23 23 23 23 23 23 23 23 24 24 23 22 22 21 21 20 20 19 19 19 18 18 18 18 18 17 17 17 16 16 16 16 16 15 15 15 15 15
22 22 22 22 23 23 22 23 23 23 23 23 22 23 23 23 22 22 22 21 20 20 20 19 19 19 18 18 18 18 18 17 17 17 16 16 16 16 16 15 15 15 15 15
22 22 22 21 22 20 23 24 24 23 23 23 23 23 23 23 22 22 21 20 20 20 19 19 19 18 18 18 18 18 17 17 17 17 16 16 16 16 16 15 15 15 15 15
22 21 21 21 21 21 23 24 24 23 22 23 23 23 22 22 22 21 21 20 20 19 19 19 18 18 18 18 18 18 17 17 17 16 16 16 16 16 15 15 15 15 15 15
21 21 20 20 20 20 22 23 23 23 21 22 22 22 22 21 20 20 20 19 19 19 18 18 18 18 18 18 18 17 17 17 17 16 16 16 16 15 15 15 15 15 14 14
20 20 19 19 20 21 22 23 23 21 21 22 22 21 21 21 20 20 19 19 18 18 18 18 17 17 17 17 17 17 17 17 16 16 16 15 15 15 15 15 15 14 14 14
20 20 19 20 19 19 21 22 21 21 21 21 21 20 20 20 20 19 19 18 18 17 17 17 17 17 17 17 16 16 16 16 16 16 15 15 15 15 15 14 14 14 14 14
20 20 20 20 20 21 21 21 20 20 20 20 20 19 19 19 18 18 18 17 17 17 17 16 16 16 16 16 16 16 16 16 16 15 15 15 14 14 14 14 14 14 14 13
20 21 20 20 20 20 20 20 19 19 19 19 19 19 18 18 18 17 17 17 16 16 16 16 15 15 15 15 15 15 15 15 15 15 15 14 14 14 14 14 14 14 13 13
18 19 19 19 19 19 19 19 19 19 18 18 18 18 18 17 17 17 16 16 16 15 15 15 15 15 15 15 15 15 15 15 15 14 14 14 14 14 13 13 13 13 13 13
18 18 18 18 18 18 18 18 18 18 17 17 17 17 17 17 16 16 16 15 15 15 15 15 14 14 14 14 14 14 14 14 14 14 14 14 13 13 13 13 13 13 13 12
Wind_Speed
4 3 3 3 4 4 3 2 0 2 1 1 2 3 5 6 5 5 5 6 7 7 7 7 7 6 6 5 6 7 5 5 4 2 2 2 2 2 3 2 4 4 4 5
4 4 3 3 3 4 4 3 1 1 1 2 2 3 4 6 5 4 4 5 6 7 8 7 7 6 5 5 5 6 5 5 5 2 1 2 2 2 2 2 4 4 4 5
5 1 2 4 3 4 4 3 3 2 2 4 3 2 4 6 6 6 5 5 6 7 8 9 8 7 6 6 5 5 5 5 5 4 2 2 2 1 2 2 2 2 4 5
4 3 3 4 4 4 4 2 3 3 4 3 4 2 3 6 6 6 5 5 6 6 7 8 8 8 7 6 5 4 4 5 5 4 2 2 2 2 2 2 1 1 3 4
3 3 4 5 3 4 3 2 4 6 6 5 4 2 2 6 5 6 6 6 6 6 7 8 9 9 8 7 5 4 4 4 4 3 2 1 1 2 2 2 2 2 3 3
6 3 3 4 3 4 4 5 8 8 6 5 5 3 1 3 4 6 6 6 6 7 8 8 9 8 7 7 5 4 3 4 4 3 3 2 2 2 3 2 2 2 2 2
7 7 5 3 5 5 6 4 3 4 4 3 3 2 2 5 5 5 6 7 7 8 8 8 9 8 7 7 6 5 4 4 4 4 3 3 3 2 2 3 2 2 1 2
6 6 7 5 5 3 5 5 3 2 2 1 3 3 5 8 7 6 6 6 7 8 8 8 9 8 8 8 7 6 5 4 4 4 3 2 3 2 2 2 2 2 2 2
3 3 6 6 5 5 4 4 5 6 7 4 1 5 7 8 7 6 6 6 7 7 7 8 9 9 8 8 7 6 5 5 5 4 4 3 3 2 2 2 1 2 3 3
5 4 5 6 6 9 7 5 4 4 3 3 2 3 4 7 6 6 6 5 5 7 7 8 8 8 8 7 7 6 5 5 4 4 3 3 3 2 3 2 2 2 3 3
7 5 5 6 5 5 5 5 5 4 4 3 1 2 4 6 6 6 5 5 5 5 6 7 7 7 7 7 7 6 5 5 4 4 3 3 3 2 2 3 3 3 3 3
4 4 6 6 5 4 5 6 6 4 4 4 3 2 6 5 5 6 5 5 6 5 6 7 7 7 6 6 7 7 7 6 5 5 4 4 4 3 3 3 3 3 3 4
3 4 5 4 5 5 6 6 6 6 5 4 4 2 6 5 5 4 4 5 5 6 6 6 6 6 6 6 6 6 7 7 6 5 5 5 4 4 3 3 3 3 3 3
3 6 6 5 2 2 4 5 6 6 5 6 5 2 2 4 4 4 4 5 5 5 6 6 5 4 5 5 5 5 6 6 6 6 5 4 4 4 4 3 2 2 2 3
5 7 8 7 6 5 6 8 8 9 9 7 6 4 3 1 3 3 4 5 5 5 5 6 5 5 5 4 4 5 5 5 6 6 5 4 4 4 4 3 2 2 1 2
7 7 8 9 8 7 9 9 10 10 9 8 8 6 3 1 3 3 4 5 4 4 4 5 5 5 5 5 5 5 5 6 6 6 6 5 4 4 4 4 3 2 2 2
7 8 8 8 8 8 9 7 8 8 7 7 7 4 1 1 1 2 3 3 3 4 3 3 4 3 4 4 5 5 5 5 6 6 6 6 5 5 5 4 3 3 3 2
9 9 6 7 8 10 4 3 4 5 4 4 3 2 1 1 1 2 3 2 2 2 3 2 2 4 3 4 3 4 4 5 6 6 6 6 6 5 5 4 4 4 3 3
10 8 6 7 9 8 5 2 3 4 4 3 3 2 1 1 1 2 2 2 1 1 1 1 0 2 2 2 3 4 4 5 5 5 6 6 6 6 5 5 4 4 3 3
9 9 8 7 8 7 2 1 1 3 4 1 2 1 1 1 2 1 2 2 2 2 2 1 1 1 2 1 3 3 4 5 5 4 5 5 6 6 6 5 4 3 3 3
10 9 10 10 9 6 2 1 1 4 1 1 2 1 1 3 2 1 2 2 3 2 2 2 2 2 1 1 2 3 3 4 4 4 4 4 5 5 6 5 4 3 3 3
9 8 10 9 10 6 1 1 1 2 3 3 3 2 3 3 2 2 2 3 2 2 3 3 2 2 1 1 2 3 2 2 4 5 4 4 4 4 4 5 4 4 3 3
8 6 4 4 3 1 2 2 3 4 4 3 3 4 3 3 2 1 1 2 2 2 2 2 1 1 1 1 2 2 2 2 3 4 4 4 4 4 4 4 4 3 3 2
7 6 6 5 3 1 2 2 2 3 4 4 4 3 2 2 2 1 0 1 1 1 2 2 1 1 1 1 1 1 2 2 4 4 4 4 4 4 4 3 3 3 3 3
6 6 7 7 4 4 3 3 3 2 3 4 4 3 3 2 2 2 1 1 1 1 2 2 1 1 0 0 1 1 1 1 3 4 4 4 4 4 4 3 2 3 2 3
7 7 7 6 4 4 3 3 4 4 3 4 4 4 3 3 2 2 1 1 1 2 3 3 2 1 1 0 1 1 1 2 2 3 3 2 3 4 4 4 3 2 3 3
Wind_Direction
212 219 229 228 224 268 294 298 31 101 128 203 187 184 160 162 175 176 178 167 163 160 155 151 145 143 138 142 133 129 141 133 111 83 83 87 76 60 56 47 51 43 52 68
212 226 241 249 237 256 262 275 274 120 167 256 216 200 166 163 171 181 186 171 160 154 148 147 147 149 147 140 137 142 143 132 123 123 128 121 107 91 91 52 50 41 44 59
222 219 242 243 236 256 258 282 296 298 267 246 229 228 184 161 160 170 182 166 158 157 156 155 156 153 150 149 152 147 142 137 131 126 92 77 73 67 82 82 66 41 49 53
229 226 247 251 254 260 268 281 285 282 269 257 216 238 186 158 163 168 172 164 157 157 154 153 159 153 156 153 152 151 146 136 125 124 116 125 137 113 107 109 116 97 92 75
237 215 240 251 265 282 283 281 271 269 267 273 248 242 178 152 161 166 166 164 153 154 153 156 160 155 155 149 147 147 142 129 126 133 132 155 126 112 105 102 111 88 89 91
240 221 241 268 256 258 262 257 253 248 257 260 245 216 152 138 138 149 155 158 154 153 155 156 152 147 148 139 139 144 137 135 140 152 165 172 142 128 124 130 119 93 99 93
221 210 201 232 252 226 244 259 254 215 212 227 196 163 106 105 109 123 140 150 156 153 153 151 147 150 150 146 151 155 151 152 162 176 182 173 166 165 159 145 135 133 118 116
232 204 191 200 241 246 245 255 278 298 285 244 175 146 111 103 102 108 123 136 148 148 149 152 151 151 151 153 159 162 166 167 171 178 179 173 167 171 160 157 157 157 148 137
246 201 169 192 224 250 258 260 270 282 290 288 176 121 115 108 114 116 122 129 135 141 148 150 150 152 154 160 163 168 168 165 171 174 179 188 170 156 155 161 147 133 127 135
273 256 193 191 219 233 247 272 280 277 297 282 215 166 144 138 138 131 124 122 129 141 146 143 147 153 158 158 164 170 166 164 167 170 179 163 153 164 160 158 151 129 127 124
259 265 217 192 213 236 223 238 254 269 271 287 327 65 83 130 135 132 128 125 124 133 139 141 145 150 153 158 166 168 164 160 163 169 162 151 154 159 151 151 152 151 150 148
241 259 252 221 198 218 250 259 259 264 275 279 289 95 87 94 106 119 120 120 122 127 128 135 141 145 153 166 171 170 170 166 165 167 161 159 164 170 164 164 169 169 160 163
281 253 254 217 187 197 232 239 254 267 273 268 270 137 109 98 94 99 108 113 115 118 122 126 137 146 155 165 170 171 169 170 168 165 164 171 169 160 162 165 162 168 162 164
277 254 254 261 278 216 244 256 256 257 261 265 264 241 143 123 112 106 108 119 125 129 132 130 136 147 155 167 172 172 168 166 165 161 162 167 161 156 156 145 148 163 172 158
255 257 259 271 284 268 254 255 256 254 256 266 274 279 281 205 147 140 136 131 132 138 140 145 154 161 164 171 173 171 168 166 163 157 157 160 155 149 141 137 141 136 145 137
243 256 262 265 265 261 265 251 245 251 255 256 267 272 289 99 111 138 143 135 134 142 156 155 163 164 168 176 183 180 176 171 163 161 158 155 152 145 142 149 146 139 120 109
236 250 256 259 263 265 256 238 234 239 240 247 257 276 12 63 125 148 134 137 153 155 147 165 170 161 176 182 185 178 173 164 157 157 153 153 154 149 146 146 141 145 142 131
249 258 254 256 255 251 244 207 214 233 240 255 273 291 287 296 233 154 115 123 143 151 154 168 176 162 185 180 166 165 158 159 160 158 154 153 151 148 149 151 155 157 154 158
241 248 253 248 249 253 253 244 219 233 246 249 253 267 287 80 62 130 104 102 92 102 122 114 36 152 163 163 155 155 158 155 156 160 161 157 156 154 153 156 163 167 171 177
230 238 245 251 250 250 249 167 286 248 244 290 235 237 303 176 236 232 87 84 79 51 76 75 53 72 118 120 143 152 159 160 158 158 161 158 162 162 164 168 170 176 178 178
212 222 233 245 248 254 300 268 208 229 296 55 16 10 301 261 282 108 103 97 85 67 67 62 64 59 93 109 134 155 157 171 160 147 149 160 156 163 167 168 170 171 169 171
225 222 228 235 241 244 24 161 222 359 20 27 14 18 9 356 23 61 90 105 103 96 95 84 72 59 46 107 134 145 154 148 143 147 152 159 161 164 162 159 168 169 163 171
230 232 241 240 245 85 81 25 6 3 347 358 9 4 7 9 5 18 71 111 120 124 114 101 85 88 40 86 108 133 123 126 136 147 155 160 159 151 145 148 156 157 154 166
254 260 250 250 241 290 344 351 357 351 348 351 354 351 350 344 335 334 23 129 132 147 132 123 121 113 58 45 88 94 101 125 148 150 155 155 151 144 143 147 153 158 173 183
267 274 264 260 264 287 313 328 323 338 350 342 336 333 322 313 300 291 257 206 171 186 154 136 143 156 167 33 107 102 116 152 165 160 155 161 160 157 155 150 160 172 178 182
256 259 254 261 273 280 292 321 326 329 326 322 321 324 320 300 286 272 237 204 198 192 170 163 168 197 212 211 167 141 152 187 180 169 166 162 160 161 163 160 146 106 146 149
Height
1503 1505 1507 1504 1503 1503 1502 1505 1508 1507 1504 1506 1508 1509 1508 1510 1512 1514 1515 1516 1518 1521 1523 1525 1527 1529 1530 1532 1533 1535 1536 1537 1538 1539 1540 1541 1542 1542 1543 1543 1543 1544 1544 1544
1503 1506 1502 1500 1500 1501 1503 1507 1508 1505 1503 1504 1507 1507 1505 1507 1510 1512 1513 1515 1517 1519 1522 1524 1526 1528 1530 1531 1533 1534 1536 1537 1538 1539 1540 1541 1542 1543 1543 1544 1544 1544 1545 1545
1503 1501 1499 1500 1501 1504 1503 1506 1507 1507 1504 1502 1506 1510 1505 1504 1507 1509 1511 1513 1515 1518 1520 1522 1525 1527 1529 1531 1533 1534 1536 1537 1537 1539 1540 1541 1542 1543 1544 1544 1544 1545 1545 1546
1499 1498 1499 1501 1502 1503 1507 1502 1503 1505 1510 1511 1507 1521 1508 1503 1505 1507 1509 1511 1514 1516 1519 1521 1524 1526 1528 1530 1532 1534 1535 1537 1537 1538 1539 1540 1542 1543 1544 1544 1545 1546 1546 1546
1499 1498 1499 1502 1502 1501 1503 1500 1502 1504 1507 1511 1505 1514 1510 1501 1506 1506 1507 1510 1512 1515 1518 1520 1522 1525 1528 1530 1531 1533 1535 1536 1537 1538 1539 1540 1542 1543 1544 1544 1545 1546 1547 1547
1496 1496 1498 1499 1499 1500 1500 1502 1502 1503 1508 1519 1506 1511 1514 1503 1502 1503 1505 1508 1511 1514 1517 1519 1522 1524 1527 1529 1531 1532 1534 1535 1536 1538 1539 1540 1541 1543 1544 1545 1545 1546 1547 1547
1498 1496 1497 1499 1500 1499 1500 1509 1519 1520 1522 1516 1496 1504 1507 1496 1496 1499 1503 1506 1510 1513 1516 1518 1521 1523 1526 1528 1530 1531 1533 1534 1536 1537 1538 1540 1541 1542 1543 1544 1545 1546 1547 1547
1503 1504 1496 1497 1499 1502 1501 1505 1520 1527 1522 1509 1496 1504 1500 1493 1496 1500 1503 1506 1509 1512 1515 1517 1520 1522 1524 1526 1529 1530 1532 1534 1535 1537 1538 1539 1540 1542 1543 1544 1545 1546 1547 1548
1500 1501 1492 1493 1495 1497 1502 1503 1499 1508 1507 1510 1504 1499 1497 1494 1497 1500 1503 1505 1508 1511 1514 1516 1519 1521 1523 1525 1528 1530 1531 1533 1534 1536 1537 1538 1540 1541 1542 1544 1545 1546 1547 1547
1492 1500 1493 1492 1495 1495 1496 1497 1502 1509 1518 1520 1510 1505 1506 1501 1500 1501 1503 1506 1508 1510 1513 1515 1518 1520 1522 1524 1527 1529 1530 1532 1533 1535 1536 1537 1539 1540 1541 1543 1544 1545 1546 1547
1491 1499 1497 1494 1498 1498 1498 1500 1501 1503 1505 1517 1522 1515 1493 1496 1497 1500 1503 1505 1508 1510 1512 1515 1517 1519 1522 1524 1526 1528 1529 1531 1532 1534 1535 1536 1537 1539 1540 1541 1543 1544 1545 1546
1490 1496 1500 1494 1490 1490 1494 1497 1500 1512 1510 1505 1513 1514 1492 1494 1496 1499 1502 1505 1508 1510 1512 1514 1517 1519 1521 1523 1525 1526 1528 1529 1531 1533 1534 1535 1537 1538 1539 1540 1542 1543 1544 1545
1493 1497 1506 1504 1500 1495 1495 1494 1496 1498 1503 1507 1514 1512 1494 1495 1498 1500 1503 1505 1508 1510 1512 1514 1516 1518 1520 1522 1524 1525 1526 1528 1530 1531 1533 1534 1535 1537 1538 1539 1541 1542 1544 1545
1495 1496 1502 1509 1502 1497 1498 1497 1496 1500 1508 1508 1506 1503 1498 1497 1499 1501 1503 1505 1507 1509 1511 1513 1515 1517 1519 1521 1522 1524 1525 1527 1528 1530 1531 1533 1534 1535 1537 1538 1539 1541 1542 1544
1494 1497 1494 1492 1489 1491 1494 1496 1496 1499 1499 1504 1501 1499 1497 1496 1498 1500 1502 1505 1507 1509 1511 1512 1514 1516 1518 1519 1521 1522 1523 1525 1526 1528 1529 1531 1533 1534 1535 1536 1538 1539 1541 1542
1493 1495 1494 1495 1490 1490 1493 1492 1494 1496 1495 1497 1497 1498 1494 1495 1497 1499 1501 1504 1506 1508 1510 1511 1513 1514 1516 1517 1519 1520 1521 1522 1524 1525 1527 1529 1531 1532 1533 1534 1536 1537 1539 1540
1492 1494 1498 1499 1491 1491 1497 1489 1490 1492 1491 1493 1498 1496 1493 1495 1497 1499 1501 1503 1505 1507 1509 1510 1511 1513 1514 1515 1516 1518 1519 1520 1522 1523 1525 1527 1529 1530 1531 1533 1534 1535 1537 1538
1492 1493 1495 1497 1497 1507 1491 1480 1482 1486 1488 1489 1491 1492 1493 1495 1496 1498 1500 1502 1503 1505 1507 1509 1510 1511 1512 1513 1514 1516 1517 1518 1520 1521 1523 1525 1526 1528 1529 1531 1532 1533 1535 1536
1489 1493 1496 1497 1500 1496 1486 1480 1481 1486 1489 1487 1489 1490 1492 1493 1495 1497 1499 1501 1502 1504 1505 1507 1508 1509 1510 1511 1512 1514 1515 1516 1518 1519 1521 1522 1524 1525 1527 1529 1530 1532 1533 1534
1487 1489 1495 1496 1501 1502 1489 1480 1480 1485 1492 1487 1488 1490 1492 1493 1497 1497 1498 1499 1501 1502 1504 1505 1506 1507 1507 1508 1510 1511 1513 1514 1515 1517 1518 1520 1522 1523 1525 1526 1528 1530 1531 1532
1489 1491 1495 1496 1497 1491 1483 1480 1481 1495 1494 1487 1488 1489 1491 1493 1495 1496 1497 1498 1499 1501 1502 1503 1504 1505 1506 1507 1508 1509 1510 1512 1513 1515 1517 1518 1520 1521 1522 1524 1526 1527 1529 1530
1485 1489 1491 1491 1496 1495 1483 1481 1486 1489 1487 1487 1489 1490 1492 1493 1493 1495 1496 1497 1498 1499 1500 1501 1502 1503 1504 1505 1506 1507 1508 1510 1511 1513 1514 1516 1517 1519 1520 1522 1523 1525 1526 1528
1479 1481 1482 1484 1487 1483 1482 1483 1485 1486 1487 1488 1489 1490 1491 1492 1493 1494 1495 1496 1497 1498 1499 1500 1501 1502 1503 1503 1504 1505 1506 1507 1509 1510 1512 1514 1515 1517 1518 1519 1521 1522 1524 1525
1475 1475 1477 1480 1480 1481 1482 1483 1485 1486 1487 1488 1489 1490 1490 1492 1493 1494 1494 1495 1496 1497 1497 1498 1499 1500 1501 1501 1502 1503 1504 1505 1507 1508 1510 1511 1513 1514 1515 1517 1518 1519 1521 1522
1478 1477 1477 1478 1479 1481 1482 1484 1485 1485 1486 1487 1488 1489 1490 1490 1491 1492 1493 1493 1494 1495 1496 1496 1497 1498 1499 1499 1500 1501 1502 1503 1504 1506 1507 1509 1510 1511 1513 1514 1515 1516 1518 1519
1477 1478 1479 1480 1481 1481 1482 1483 1484 1485 1485 1486 1487 1487 1488 1489 1489 1490 1490 1491 1492 1493 1493 1494 1495 1496 1497 1497 1498 1499 1500 1501 1502 1503 1505 1506 1508 1509 1510 1511 1513 1514 1515 1517